Year,Month,Day,Hour,Minute,Value (Times are PST for temperature in C)
2006,06,25,00,00,17.40
2006,06,25,00,01,17.40
2006,06,25,00,02,17.40
2006,06,25,00,03,17.30
2006,06,25,00,04,17.30
2006,06,25,00,05,17.30
2006,06,25,00,06,17.30
2006,06,25,00,07,17.30
2006,06,25,00,08,17.20
2006,06,25,00,09,17.20
2006,06,25,00,10,17.20
2006,06,25,00,11,17.10
2006,06,25,00,12,17.10
2006,06,25,00,13,17.10
2006,06,25,01,02,16.30
2006,06,25,01,03,16.30
2006,06,25,01,04,16.30
2006,06,25,01,05,16.20
2006,06,25,01,06,16.20
2006,06,25,01,07,16.20
2006,06,25,01,08,16.20
2006,06,25,01,09,16.20
2006,06,25,01,10,16.20
2006,06,25,01,11,16.10
2006,06,25,01,12,16.10
2006,06,25,01,13,16.10
2006,06,25,01,14,16.10
2006,06,25,01,15,16.10
2006,06,25,01,16,16.10
2006,06,25,01,17,16.10
2006,06,25,01,18,16.00
2006,06,25,01,19,15.90
2006,06,25,01,20,15.90
2006,06,25,01,21,15.90
2006,06,25,01,22,15.90
2006,06,25,01,23,15.80
2006,06,25,01,24,15.80
2006,06,25,01,25,15.80
2006,06,25,01,26,15.80
2006,06,25,01,27,15.80
2006,06,25,01,28,15.80
2006,06,25,01,29,15.80
2006,06,25,01,30,15.80
2006,06,25,01,31,15.70
2006,06,25,01,32,15.70
2006,06,25,01,33,15.70
2006,06,25,01,34,15.70
2006,06,25,01,35,15.60
2006,06,25,01,36,15.60
2006,06,25,01,37,15.60
2006,06,25,01,38,15.60
2006,06,25,01,39,15.60
2006,06,25,01,40,15.50
2006,06,25,01,41,15.50
2006,06,25,01,42,15.50
2006,06,25,01,43,15.50
2006,06,25,01,44,15.50
2006,06,25,01,45,15.50
2006,06,25,01,46,15.50
2006,06,25,01,47,15.50
2006,06,25,01,48,15.40
2006,06,25,01,49,15.40
2006,06,25,01,50,15.40
2006,06,25,01,51,15.40
2006,06,25,01,52,15.40
2006,06,25,01,53,15.40
2006,06,25,01,54,15.40
2006,06,25,01,55,15.40
2006,06,25,01,56,15.40
2006,06,25,01,57,15.40
2006,06,25,01,58,15.40
2006,06,25,01,59,15.30
2006,06,25,02,00,15.30
2006,06,25,02,01,15.30
2006,06,25,02,02,15.30
2006,06,25,02,03,15.30
2006,06,25,02,04,15.30
2006,06,25,02,05,15.30
2006,06,25,02,06,15.30
2006,06,25,02,07,15.30
2006,06,25,02,08,15.30
2006,06,25,02,09,15.30
2006,06,25,02,10,15.30
2006,06,25,02,11,15.30
2006,06,25,02,12,15.30
2006,06,25,02,13,15.30
2006,06,25,02,14,15.30
2006,06,25,02,15,15.30
2006,06,25,02,16,15.30
2006,06,25,02,17,15.20
2006,06,25,02,18,15.20
2006,06,25,02,19,15.20
2006,06,25,02,20,15.20
2006,06,25,02,21,15.20
2006,06,25,02,22,15.20
2006,06,25,02,23,15.20
2006,06,25,02,24,15.20
2006,06,25,02,25,15.20
2006,06,25,02,26,15.20
2006,06,25,02,27,15.20
2006,06,25,02,28,15.10
2006,06,25,02,29,15.10
2006,06,25,02,30,15.10
2006,06,25,02,31,15.10
2006,06,25,02,32,15.10
2006,06,25,02,33,15.10
2006,06,25,02,34,15.10
2006,06,25,02,35,15.10
2006,06,25,02,36,15.10
2006,06,25,02,37,15.10
2006,06,25,02,38,15.10
2006,06,25,02,39,15.10
2006,06,25,02,40,15.10
2006,06,25,02,41,15.10
2006,06,25,02,42,15.00
2006,06,25,02,43,15.00
2006,06,25,02,44,15.00
2006,06,25,02,45,15.00
2006,06,25,02,46,15.00
2006,06,25,02,47,15.00
2006,06,25,02,48,15.00
2006,06,25,02,49,15.00
2006,06,25,02,50,15.00
2006,06,25,02,51,15.00
2006,06,25,02,52,15.00
2006,06,25,02,53,15.00
2006,06,25,02,54,15.00
2006,06,25,02,55,15.00
2006,06,25,02,56,14.90
2006,06,25,02,57,14.90
2006,06,25,02,58,14.90
2006,06,25,02,59,14.90
2006,06,25,03,00,14.90
2006,06,25,03,01,14.90
2006,06,25,03,02,14.90
2006,06,25,03,03,14.90
2006,06,25,03,04,14.90
2006,06,25,03,05,14.90
2006,06,25,03,06,14.90
2006,06,25,03,07,14.90
2006,06,25,03,08,14.90
2006,06,25,03,09,14.90
2006,06,25,03,10,14.90
2006,06,25,03,11,14.90
2006,06,25,03,12,14.90
2006,06,25,03,13,14.90
2006,06,25,03,14,14.90
2006,06,25,03,15,14.90
2006,06,25,03,16,14.90
2006,06,25,03,17,14.80
2006,06,25,03,18,14.80
2006,06,25,03,19,14.80
2006,06,25,03,20,14.80
2006,06,25,03,21,14.80
2006,06,25,03,22,14.80
2006,06,25,03,23,14.80
2006,06,25,03,24,14.80
2006,06,25,03,25,14.80
2006,06,25,03,26,14.70
2006,06,25,03,27,14.70
2006,06,25,03,28,14.70
2006,06,25,03,29,14.70
2006,06,25,03,30,14.70
2006,06,25,03,31,14.60
2006,06,25,03,32,14.60
2006,06,25,03,33,14.60
2006,06,25,03,34,14.60
2006,06,25,03,35,14.60
2006,06,25,03,36,14.50
2006,06,25,03,37,14.50
2006,06,25,03,38,14.50
2006,06,25,03,39,14.50
2006,06,25,03,40,14.50
2006,06,25,03,41,14.50
2006,06,25,03,42,14.50
2006,06,25,03,43,14.50
2006,06,25,03,44,14.50
2006,06,25,03,45,14.50
2006,06,25,03,46,14.50
2006,06,25,03,47,14.50
2006,06,25,03,48,14.50
2006,06,25,03,49,14.50
2006,06,25,03,50,14.50
2006,06,25,03,51,14.50
2006,06,25,03,52,14.40
2006,06,25,03,53,14.40
2006,06,25,03,54,14.40
2006,06,25,03,55,14.40
2006,06,25,03,56,14.40
2006,06,25,03,57,14.40
2006,06,25,03,58,14.40
2006,06,25,03,59,14.40
2006,06,25,04,00,14.40
2006,06,25,04,01,14.40
2006,06,25,04,02,14.40
2006,06,25,04,03,14.40
2006,06,25,04,04,14.30
2006,06,25,04,05,14.30
2006,06,25,04,06,14.30
2006,06,25,04,07,14.30
2006,06,25,04,08,14.30
2006,06,25,04,09,14.30
2006,06,25,04,10,14.30
2006,06,25,04,11,14.30
2006,06,25,04,12,14.30
2006,06,25,04,13,14.30
2006,06,25,04,14,14.30
2006,06,25,04,15,14.30
2006,06,25,04,16,14.20
2006,06,25,04,17,14.20
2006,06,25,04,18,14.20
2006,06,25,04,19,14.20
2006,06,25,04,20,14.20
2006,06,25,04,21,14.20
2006,06,25,04,22,14.20
2006,06,25,04,23,14.20
2006,06,25,04,24,14.20
2006,06,25,04,25,14.20
2006,06,25,04,26,14.20
2006,06,25,04,27,14.20
2006,06,25,04,28,14.20
2006,06,25,04,29,14.20
2006,06,25,04,30,14.20
2006,06,25,04,31,14.20
2006,06,25,04,32,14.20
2006,06,25,04,33,14.20
2006,06,25,04,34,14.20
2006,06,25,04,35,14.20
2006,06,25,04,36,14.20
2006,06,25,04,37,14.20
2006,06,25,04,38,14.20
2006,06,25,04,39,14.20
2006,06,25,04,40,14.20
2006,06,25,04,41,14.20
2006,06,25,04,42,14.20
2006,06,25,04,43,14.20
2006,06,25,04,44,14.20
2006,06,25,04,45,14.20
2006,06,25,04,46,14.20
2006,06,25,04,47,14.10
2006,06,25,04,48,14.10
2006,06,25,04,49,14.10
2006,06,25,04,50,14.10
2006,06,25,04,51,14.00
2006,06,25,04,52,14.00
2006,06,25,04,53,14.00
2006,06,25,04,54,14.00
2006,06,25,04,55,14.00
2006,06,25,04,56,14.00
2006,06,25,04,57,13.90
2006,06,25,04,58,13.90
2006,06,25,04,59,13.90
2006,06,25,05,00,13.90
2006,06,25,05,01,13.90
2006,06,25,05,02,13.90
2006,06,25,05,03,13.90
2006,06,25,05,04,13.90
2006,06,25,05,05,13.90
2006,06,25,05,06,13.90
2006,06,25,05,07,13.80
2006,06,25,05,08,13.80
2006,06,25,05,09,13.80
2006,06,25,05,10,13.80
2006,06,25,05,11,13.80
2006,06,25,05,12,13.80
2006,06,25,05,13,13.80
2006,06,25,05,14,13.80
2006,06,25,05,15,13.80
2006,06,25,05,16,13.80
2006,06,25,05,17,13.80
2006,06,25,05,18,13.80
2006,06,25,05,19,13.80
2006,06,25,05,20,13.80
2006,06,25,05,21,13.80
2006,06,25,05,22,13.80
2006,06,25,05,23,13.80
2006,06,25,05,24,13.80
2006,06,25,05,25,13.80
2006,06,25,05,26,13.80
2006,06,25,05,27,13.80
2006,06,25,05,28,13.80
2006,06,25,05,29,13.80
2006,06,25,05,30,13.80
2006,06,25,05,31,13.80
2006,06,25,05,32,13.80
2006,06,25,05,33,13.80
2006,06,25,05,34,13.80
2006,06,25,05,35,13.80
2006,06,25,05,36,13.80
2006,06,25,05,37,13.80
2006,06,25,05,38,13.80
2006,06,25,05,39,13.80
2006,06,25,05,40,13.80
2006,06,25,05,41,13.80
2006,06,25,05,42,13.80
2006,06,25,05,43,13.80
2006,06,25,05,44,13.80
2006,06,25,05,45,13.80
2006,06,25,05,46,13.80
2006,06,25,05,47,13.80
2006,06,25,05,48,13.70
2006,06,25,05,49,13.70
2006,06,25,05,50,13.70
2006,06,25,05,51,13.70
2006,06,25,05,52,13.70
2006,06,25,05,53,13.70
2006,06,25,05,54,13.70
2006,06,25,05,55,13.70
2006,06,25,05,56,13.70
2006,06,25,05,57,13.70
2006,06,25,05,58,13.70
2006,06,25,05,59,13.70
2006,06,25,06,00,13.70
2006,06,25,06,01,13.80
2006,06,25,06,02,13.80
2006,06,25,06,03,13.80
2006,06,25,06,04,13.80
2006,06,25,06,05,13.80
2006,06,25,06,06,13.80
2006,06,25,06,07,13.80
2006,06,25,06,08,13.80
2006,06,25,06,09,13.80
2006,06,25,06,10,13.80
2006,06,25,06,11,13.80
2006,06,25,06,12,13.80
2006,06,25,06,13,13.80
2006,06,25,06,14,13.80
2006,06,25,06,15,13.90
2006,06,25,06,16,13.90
2006,06,25,06,17,13.90
2006,06,25,06,18,13.90
2006,06,25,06,19,13.90
2006,06,25,06,20,13.90
2006,06,25,06,21,14.00
2006,06,25,06,22,14.00
2006,06,25,06,23,14.00
2006,06,25,06,24,14.00
2006,06,25,06,25,14.00
2006,06,25,06,26,14.00
2006,06,25,06,27,14.10
2006,06,25,06,28,14.10
2006,06,25,06,29,14.10
2006,06,25,06,30,14.10
2006,06,25,06,31,14.10
2006,06,25,06,32,14.20
2006,06,25,06,33,14.20
2006,06,25,06,34,14.20
2006,06,25,06,35,14.20
2006,06,25,06,36,14.20
2006,06,25,06,37,14.20
2006,06,25,06,38,14.20
2006,06,25,06,39,14.20
2006,06,25,06,40,14.30
2006,06,25,06,41,14.30
2006,06,25,06,42,14.40
2006,06,25,06,43,14.40
2006,06,25,06,44,14.40
2006,06,25,06,45,14.50
2006,06,25,06,46,14.50
2006,06,25,06,47,14.60
2006,06,25,06,48,14.60
2006,06,25,06,49,14.60
2006,06,25,06,50,14.70
2006,06,25,06,51,14.70
2006,06,25,06,52,14.80
2006,06,25,06,53,14.80
2006,06,25,06,54,14.90
2006,06,25,06,55,14.90
2006,06,25,06,56,15.00
2006,06,25,06,57,15.10
2006,06,25,06,58,15.10
2006,06,25,06,59,15.20
2006,06,25,07,00,15.20
2006,06,25,07,01,15.30
2006,06,25,07,02,15.30
2006,06,25,07,03,15.40
2006,06,25,07,04,15.40
2006,06,25,07,05,15.50
2006,06,25,07,06,15.50
2006,06,25,07,07,15.60
2006,06,25,07,08,15.70
2006,06,25,07,09,15.70
2006,06,25,07,10,15.80
2006,06,25,07,11,15.80
2006,06,25,07,12,15.80
2006,06,25,07,13,15.90
2006,06,25,07,14,16.00
2006,06,25,07,15,16.10
2006,06,25,07,16,16.10
2006,06,25,07,17,16.10
2006,06,25,07,18,16.20
2006,06,25,07,19,16.30
2006,06,25,07,20,16.30
2006,06,25,07,21,16.40
2006,06,25,07,22,16.40
2006,06,25,07,23,16.50
2006,06,25,07,24,16.60
2006,06,25,07,25,16.70
2006,06,25,07,26,16.70
2006,06,25,07,27,16.70
2006,06,25,07,28,16.80
2006,06,25,07,29,16.80
2006,06,25,07,30,16.90
2006,06,25,07,31,17.00
2006,06,25,07,32,17.10
2006,06,25,07,33,17.20
2006,06,25,07,34,17.20
2006,06,25,07,35,17.40
2006,06,25,07,36,17.60
2006,06,25,07,37,17.70
2006,06,25,07,38,17.90
2006,06,25,07,39,18.10
2006,06,25,07,40,18.30
2006,06,25,07,41,18.40
2006,06,25,07,42,18.60
2006,06,25,07,43,18.60
2006,06,25,07,44,18.70
2006,06,25,07,45,18.80
2006,06,25,07,46,18.90
2006,06,25,07,47,19.00
2006,06,25,07,48,19.10
2006,06,25,07,49,19.20
2006,06,25,07,50,19.30
2006,06,25,07,51,19.40
2006,06,25,07,52,19.40
2006,06,25,07,53,19.50
2006,06,25,07,54,19.60
2006,06,25,07,55,19.70
2006,06,25,07,56,19.90
2006,06,25,07,57,20.00
2006,06,25,07,58,20.10
2006,06,25,07,59,20.20
2006,06,25,08,00,20.20
2006,06,25,08,01,20.30
2006,06,25,08,02,20.30
2006,06,25,08,03,20.40
2006,06,25,08,04,20.50
2006,06,25,08,05,20.60
2006,06,25,08,06,20.60
2006,06,25,08,07,20.60
2006,06,25,08,08,20.70
2006,06,25,08,09,20.70
2006,06,25,08,10,20.70
2006,06,25,08,11,20.80
2006,06,25,08,12,20.80
2006,06,25,08,13,20.90
2006,06,25,08,14,21.00
2006,06,25,08,15,21.00
2006,06,25,08,16,21.10
2006,06,25,08,17,21.10
2006,06,25,08,18,21.10
2006,06,25,08,19,21.20
2006,06,25,08,20,21.20
2006,06,25,08,21,21.30
2006,06,25,08,22,21.30
2006,06,25,08,23,21.30
2006,06,25,08,24,21.30
2006,06,25,08,25,21.30
2006,06,25,08,26,21.30
2006,06,25,08,27,21.30
2006,06,25,08,28,21.30
2006,06,25,08,29,21.30
2006,06,25,08,30,21.30
2006,06,25,08,31,21.30
2006,06,25,08,32,21.30
2006,06,25,08,33,21.40
2006,06,25,08,34,21.50
2006,06,25,08,35,21.60
2006,06,25,08,36,21.70
2006,06,25,08,37,21.70
2006,06,25,08,38,21.70
2006,06,25,08,39,21.70
2006,06,25,08,40,21.70
2006,06,25,08,41,21.70
2006,06,25,08,42,21.70
2006,06,25,08,43,21.70
2006,06,25,08,44,21.70
2006,06,25,08,45,21.60
2006,06,25,08,46,21.60
2006,06,25,08,47,21.60
2006,06,25,08,48,21.60
2006,06,25,08,49,21.60
2006,06,25,08,50,21.60
2006,06,25,08,51,21.60
2006,06,25,08,52,21.60
2006,06,25,08,53,21.50
2006,06,25,08,54,21.40
2006,06,25,08,55,21.40
2006,06,25,08,56,21.50
2006,06,25,08,57,21.60
2006,06,25,08,58,21.60
2006,06,25,08,59,21.60
2006,06,25,09,00,21.70
2006,06,25,09,01,21.80
2006,06,25,09,02,21.80
2006,06,25,09,03,21.80
2006,06,25,09,04,21.80
2006,06,25,09,05,21.80
2006,06,25,09,06,21.70
2006,06,25,09,07,21.70
2006,06,25,09,08,21.70
2006,06,25,09,09,21.80
2006,06,25,09,10,21.80
2006,06,25,09,11,21.80
2006,06,25,09,12,21.80
2006,06,25,09,13,21.90
2006,06,25,09,14,21.90
2006,06,25,09,15,22.00
2006,06,25,09,16,22.00
2006,06,25,09,17,22.10
2006,06,25,09,18,22.10
2006,06,25,09,19,22.10
2006,06,25,09,20,22.20
2006,06,25,09,21,22.20
2006,06,25,09,22,22.20
2006,06,25,09,23,22.20
2006,06,25,09,24,22.20
2006,06,25,09,25,22.30
2006,06,25,09,26,22.30
2006,06,25,09,27,22.20
2006,06,25,09,28,22.20
2006,06,25,09,29,22.20
2006,06,25,09,30,22.30
2006,06,25,09,31,22.40
2006,06,25,09,32,22.40
2006,06,25,09,33,22.50
2006,06,25,09,34,22.50
2006,06,25,09,35,22.50
2006,06,25,09,36,22.50
2006,06,25,09,37,22.40
2006,06,25,09,38,22.40
2006,06,25,09,39,22.40
2006,06,25,09,40,22.40
2006,06,25,09,41,22.40
2006,06,25,09,42,22.40
2006,06,25,09,43,22.40
2006,06,25,09,44,22.50
2006,06,25,09,45,22.50
2006,06,25,09,46,22.50
2006,06,25,09,47,22.50
2006,06,25,09,48,22.50
2006,06,25,09,49,22.50
2006,06,25,09,50,22.50
2006,06,25,09,51,22.40
2006,06,25,09,52,22.30
2006,06,25,09,53,22.20
2006,06,25,09,54,22.20
2006,06,25,09,55,22.10
2006,06,25,09,56,22.10
2006,06,25,09,57,22.00
2006,06,25,09,58,22.00
2006,06,25,09,59,22.00
2006,06,25,10,00,22.10
2006,06,25,10,01,22.10
2006,06,25,10,02,22.30
2006,06,25,10,03,22.30
2006,06,25,10,04,22.40
2006,06,25,10,05,22.40
2006,06,25,10,06,22.50
2006,06,25,10,07,22.60
2006,06,25,10,08,22.70
2006,06,25,10,09,22.70
2006,06,25,10,10,22.80
2006,06,25,10,11,22.70
2006,06,25,10,12,22.70
2006,06,25,10,13,22.80
2006,06,25,10,14,22.80
2006,06,25,10,15,22.90
2006,06,25,10,16,22.90
2006,06,25,10,17,23.00
2006,06,25,10,18,23.10
2006,06,25,10,19,23.10
2006,06,25,10,20,23.10
2006,06,25,10,21,23.10
2006,06,25,10,22,23.20
2006,06,25,10,23,23.20
2006,06,25,10,24,23.20
2006,06,25,10,25,23.30
2006,06,25,10,26,23.30
2006,06,25,10,27,23.30
2006,06,25,10,28,23.30
2006,06,25,10,29,23.30
2006,06,25,10,30,23.30
2006,06,25,10,31,23.30
2006,06,25,10,32,23.30
2006,06,25,10,33,23.40
2006,06,25,10,34,23.40
2006,06,25,10,35,23.40
2006,06,25,10,36,23.40
2006,06,25,10,37,23.40
2006,06,25,10,38,23.40
2006,06,25,10,39,23.30
2006,06,25,10,40,23.30
2006,06,25,10,41,23.30
2006,06,25,10,42,23.30
2006,06,25,10,43,23.40
2006,06,25,10,44,23.50
2006,06,25,10,45,23.60
2006,06,25,10,46,23.60
2006,06,25,10,47,23.70
2006,06,25,10,48,23.70
2006,06,25,10,49,23.70
2006,06,25,10,50,23.80
2006,06,25,10,51,23.80
2006,06,25,10,52,23.80
2006,06,25,10,53,23.90
2006,06,25,10,54,24.00
2006,06,25,10,55,24.10
2006,06,25,10,56,24.10
2006,06,25,10,57,24.10
2006,06,25,10,58,24.10
2006,06,25,10,59,24.30
2006,06,25,11,00,24.40
2006,06,25,11,01,24.40
2006,06,25,11,02,24.40
2006,06,25,11,03,24.40
2006,06,25,11,04,24.40
2006,06,25,11,05,24.30
2006,06,25,11,06,24.40
2006,06,25,11,07,24.40
2006,06,25,11,08,24.40
2006,06,25,11,09,24.40
2006,06,25,11,10,24.40
2006,06,25,11,11,24.30
2006,06,25,11,12,24.30
2006,06,25,11,13,24.30
2006,06,25,11,14,24.30
2006,06,25,11,15,24.30
2006,06,25,11,16,24.30
2006,06,25,11,17,24.30
2006,06,25,11,18,24.20
2006,06,25,11,19,24.20
2006,06,25,11,20,24.20
2006,06,25,11,21,24.30
2006,06,25,11,22,24.30
2006,06,25,11,23,24.30
2006,06,25,11,24,24.30
2006,06,25,11,25,24.40
2006,06,25,11,26,24.40
2006,06,25,11,27,24.40
2006,06,25,11,28,24.40
2006,06,25,11,29,24.50
2006,06,25,11,30,24.60
2006,06,25,11,31,24.70
2006,06,25,11,32,24.80
2006,06,25,11,33,24.90
2006,06,25,11,34,24.90
2006,06,25,11,35,25.00
2006,06,25,11,36,25.00
2006,06,25,11,37,25.00
2006,06,25,11,38,24.90
2006,06,25,11,39,24.80
2006,06,25,11,40,24.70
2006,06,25,11,41,24.60
2006,06,25,11,42,24.50
2006,06,25,11,43,24.50
2006,06,25,11,44,24.40
2006,06,25,11,45,24.40
2006,06,25,11,46,24.40
2006,06,25,11,47,24.50
2006,06,25,11,48,24.50
2006,06,25,11,49,24.50
2006,06,25,11,50,24.40
2006,06,25,11,51,24.40
2006,06,25,11,52,24.30
2006,06,25,11,53,24.30
2006,06,25,11,54,24.40
2006,06,25,11,55,24.50
2006,06,25,11,56,24.50
2006,06,25,11,57,24.50
2006,06,25,11,58,24.50
2006,06,25,11,59,24.50
2006,06,25,12,00,24.40
2006,06,25,12,01,24.30
2006,06,25,12,02,24.30
2006,06,25,12,03,24.30
2006,06,25,12,04,24.30
2006,06,25,12,05,24.40
2006,06,25,12,06,24.50
2006,06,25,12,07,24.50
2006,06,25,12,08,24.70
2006,06,25,12,09,24.90
2006,06,25,12,10,25.00
2006,06,25,12,11,25.00
2006,06,25,12,12,25.00
2006,06,25,12,13,25.00
2006,06,25,12,14,25.00
2006,06,25,12,15,25.00
2006,06,25,12,16,25.00
2006,06,25,12,17,25.10
2006,06,25,12,18,25.20
2006,06,25,12,19,25.10
2006,06,25,12,20,24.90
2006,06,25,12,21,24.80
2006,06,25,12,22,24.80
2006,06,25,12,23,24.70
2006,06,25,12,24,24.70
2006,06,25,12,25,24.50
2006,06,25,12,26,24.40
2006,06,25,12,27,24.40
2006,06,25,12,28,24.50
2006,06,25,12,29,24.60
2006,06,25,12,30,24.70
2006,06,25,12,31,24.70
2006,06,25,12,32,24.80
2006,06,25,12,33,24.80
2006,06,25,12,34,24.80
2006,06,25,12,35,24.90
2006,06,25,12,36,24.90
2006,06,25,12,37,24.90
2006,06,25,12,38,25.00
2006,06,25,12,39,25.00
2006,06,25,12,40,25.00
2006,06,25,12,41,25.00
2006,06,25,12,42,24.90
2006,06,25,12,43,24.80
2006,06,25,12,44,24.70
2006,06,25,12,45,24.70
2006,06,25,12,46,24.60
2006,06,25,12,47,24.60
2006,06,25,12,48,24.60
2006,06,25,12,49,24.70
2006,06,25,12,50,24.80
2006,06,25,12,51,24.90
2006,06,25,12,52,24.90
2006,06,25,12,53,24.90
2006,06,25,12,54,24.90
2006,06,25,12,55,24.90
2006,06,25,12,56,24.90
2006,06,25,12,57,25.00
2006,06,25,12,58,25.10
2006,06,25,12,59,25.10
2006,06,25,13,00,25.10
2006,06,25,13,01,25.10
2006,06,25,13,02,25.10
2006,06,25,13,03,25.10
2006,06,25,13,04,25.20
2006,06,25,13,05,25.30
2006,06,25,13,06,25.40
2006,06,25,13,07,25.40
2006,06,25,13,08,25.40
2006,06,25,13,09,25.40
2006,06,25,13,10,25.40
2006,06,25,13,11,25.40
2006,06,25,13,12,25.50
2006,06,25,13,13,25.60
2006,06,25,13,14,25.60
2006,06,25,13,15,25.70
2006,06,25,13,16,25.70
2006,06,25,13,17,25.80
2006,06,25,13,18,25.80
2006,06,25,13,19,25.90
2006,06,25,13,20,26.00
2006,06,25,13,21,26.10
2006,06,25,13,22,26.20
2006,06,25,13,23,26.40
2006,06,25,13,24,26.50
2006,06,25,13,25,26.60
2006,06,25,13,26,26.70
2006,06,25,13,27,26.80
2006,06,25,13,28,26.80
2006,06,25,13,29,26.80
2006,06,25,13,30,26.80
2006,06,25,13,31,26.80
2006,06,25,13,32,26.80
2006,06,25,13,33,26.90
2006,06,25,13,34,26.90
2006,06,25,13,35,26.80
2006,06,25,13,36,26.90
2006,06,25,13,37,26.90
2006,06,25,13,38,26.80
2006,06,25,13,39,26.80
2006,06,25,13,40,26.70
2006,06,25,13,41,26.80
2006,06,25,13,42,26.90
2006,06,25,13,43,26.90
2006,06,25,13,44,26.90
2006,06,25,13,45,26.90
2006,06,25,13,46,27.00
2006,06,25,13,47,27.10
2006,06,25,13,48,27.10
2006,06,25,13,49,27.00
2006,06,25,13,50,26.90
2006,06,25,13,51,26.90
2006,06,25,13,52,26.90
2006,06,25,13,53,26.90
2006,06,25,13,54,26.80
2006,06,25,13,55,26.70
2006,06,25,13,56,26.60
2006,06,25,13,57,26.60
2006,06,25,13,58,26.70
2006,06,25,13,59,26.80
2006,06,25,14,00,26.90
2006,06,25,14,01,26.80
2006,06,25,14,02,26.80
2006,06,25,14,03,26.80
2006,06,25,14,04,26.70
2006,06,25,14,05,26.70
2006,06,25,14,06,26.70
2006,06,25,14,07,26.80
2006,06,25,14,08,26.80
2006,06,25,14,09,26.90
2006,06,25,14,10,27.10
2006,06,25,14,11,27.30
2006,06,25,14,12,27.30
2006,06,25,14,13,27.40
2006,06,25,14,14,27.40
2006,06,25,14,15,27.40
2006,06,25,14,16,27.30
2006,06,25,14,17,27.30
2006,06,25,14,18,27.20
2006,06,25,14,19,27.20
2006,06,25,14,20,27.30
2006,06,25,14,21,27.30
2006,06,25,14,22,27.40
2006,06,25,14,23,27.50
2006,06,25,14,24,27.60
2006,06,25,14,25,27.60
2006,06,25,14,26,27.70
2006,06,25,14,27,27.70
2006,06,25,14,28,27.70
2006,06,25,14,29,27.80
2006,06,25,14,30,27.90
2006,06,25,14,31,27.90
2006,06,25,14,32,28.10
2006,06,25,14,33,28.20
2006,06,25,14,34,28.20
2006,06,25,14,35,28.20
2006,06,25,14,36,28.10
2006,06,25,14,37,28.00
2006,06,25,14,38,28.00
2006,06,25,14,39,28.00
2006,06,25,14,40,28.00
2006,06,25,14,41,28.10
2006,06,25,14,42,28.10
2006,06,25,14,43,28.00
2006,06,25,14,44,27.90
2006,06,25,14,45,27.90
2006,06,25,14,46,27.90
2006,06,25,14,47,27.90
2006,06,25,14,48,27.90
2006,06,25,14,49,27.90
2006,06,25,14,50,27.80
2006,06,25,14,51,27.80
2006,06,25,14,52,27.80
2006,06,25,14,53,27.90
2006,06,25,14,54,28.00
2006,06,25,14,55,28.10
2006,06,25,14,56,28.20
2006,06,25,14,57,28.20
2006,06,25,14,58,28.10
2006,06,25,14,59,28.00
2006,06,25,15,00,28.00
2006,06,25,15,01,28.10
2006,06,25,15,02,28.10
2006,06,25,15,03,28.00
2006,06,25,15,04,27.90
2006,06,25,15,05,27.80
2006,06,25,15,06,27.80
2006,06,25,15,07,27.80
2006,06,25,15,08,27.80
2006,06,25,15,09,27.70
2006,06,25,15,10,27.70
2006,06,25,15,11,27.70
2006,06,25,15,12,27.90
2006,06,25,15,13,28.00
2006,06,25,15,14,28.00
2006,06,25,15,15,28.00
2006,06,25,15,16,27.90
2006,06,25,15,17,27.80
2006,06,25,15,18,27.70
2006,06,25,15,19,27.70
2006,06,25,15,20,27.60
2006,06,25,15,21,27.60
2006,06,25,15,22,27.60
2006,06,25,15,23,27.50
2006,06,25,15,24,27.40
2006,06,25,15,25,27.30
2006,06,25,15,26,27.30
2006,06,25,15,27,27.30
2006,06,25,15,28,27.30
2006,06,25,15,29,27.20
2006,06,25,15,30,27.20
2006,06,25,15,31,27.20
2006,06,25,15,32,27.30
2006,06,25,15,33,27.30
2006,06,25,15,34,27.30
2006,06,25,15,35,27.40
2006,06,25,15,36,27.40
2006,06,25,15,37,27.40
2006,06,25,15,38,27.30
2006,06,25,15,39,27.30
2006,06,25,15,40,27.30
2006,06,25,15,41,27.30
2006,06,25,15,42,27.30
2006,06,25,15,43,27.30
2006,06,25,15,44,27.30
2006,06,25,15,45,27.30
2006,06,25,15,46,27.30
2006,06,25,15,47,27.20
2006,06,25,15,48,27.20
2006,06,25,15,49,27.30
2006,06,25,15,50,27.30
2006,06,25,15,51,27.30
2006,06,25,15,52,27.20
2006,06,25,15,53,27.20
2006,06,25,15,54,27.20
2006,06,25,15,55,27.10
2006,06,25,15,56,27.10
2006,06,25,15,57,27.10
2006,06,25,15,58,27.10
2006,06,25,15,59,27.20
2006,06,25,16,00,27.20
2006,06,25,16,01,27.30
2006,06,25,16,02,27.30
2006,06,25,16,03,27.30
2006,06,25,16,04,27.30
2006,06,25,16,05,27.30
2006,06,25,16,06,27.30
2006,06,25,16,07,27.30
2006,06,25,16,08,27.30
2006,06,25,16,09,27.20
2006,06,25,16,10,27.20
2006,06,25,16,11,27.20
2006,06,25,16,12,27.20
2006,06,25,16,13,27.10
2006,06,25,16,14,27.10
2006,06,25,16,15,27.00
2006,06,25,16,16,26.90
2006,06,25,16,17,26.90
2006,06,25,16,18,26.90
2006,06,25,16,19,26.90
2006,06,25,16,20,26.90
2006,06,25,16,21,26.90
2006,06,25,16,22,26.90
2006,06,25,16,23,27.00
2006,06,25,16,24,27.10
2006,06,25,16,25,27.20
2006,06,25,16,26,27.20
2006,06,25,16,27,27.30
2006,06,25,16,28,27.40
2006,06,25,16,29,27.40
2006,06,25,16,30,27.40
2006,06,25,16,31,27.40
2006,06,25,16,32,27.50
2006,06,25,16,33,27.60
2006,06,25,16,34,27.60
2006,06,25,16,35,27.60
2006,06,25,16,36,27.70
2006,06,25,16,37,27.70
2006,06,25,16,38,27.70
2006,06,25,16,39,27.70
2006,06,25,16,40,27.80
2006,06,25,16,41,27.90
2006,06,25,16,42,28.00
2006,06,25,16,43,28.10
2006,06,25,16,44,28.10
2006,06,25,16,45,28.30
2006,06,25,16,46,28.40
2006,06,25,16,47,28.50
2006,06,25,16,48,28.70
2006,06,25,16,49,28.70
2006,06,25,16,50,28.60
2006,06,25,16,51,28.50
2006,06,25,16,52,28.40
2006,06,25,16,53,28.30
2006,06,25,16,54,28.10
2006,06,25,16,55,28.00
2006,06,25,16,56,28.00
2006,06,25,16,57,27.90
2006,06,25,16,58,28.00
2006,06,25,16,59,28.10
2006,06,25,17,00,28.20
2006,06,25,17,01,28.40
2006,06,25,17,02,28.40
2006,06,25,17,03,28.40
2006,06,25,17,04,28.30
2006,06,25,17,05,28.30
2006,06,25,17,06,28.30
2006,06,25,17,07,28.30
2006,06,25,17,08,28.40
2006,06,25,17,09,28.40
2006,06,25,17,10,28.40
2006,06,25,17,11,28.40
2006,06,25,17,12,28.40
2006,06,25,17,13,28.50
2006,06,25,17,14,28.60
2006,06,25,17,15,28.60
2006,06,25,17,16,28.70
2006,06,25,17,17,28.70
2006,06,25,17,18,28.70
2006,06,25,17,19,28.70
2006,06,25,17,20,28.70
2006,06,25,17,21,28.60
2006,06,25,17,22,28.60
2006,06,25,17,23,28.70
2006,06,25,17,24,28.70
2006,06,25,17,25,28.70
2006,06,25,17,26,28.70
2006,06,25,17,27,28.80
2006,06,25,17,28,28.80
2006,06,25,17,29,28.80
2006,06,25,17,30,28.80
2006,06,25,17,31,28.80
2006,06,25,17,32,28.80
2006,06,25,17,33,28.90
2006,06,25,17,34,28.90
2006,06,25,17,35,28.90
2006,06,25,17,36,28.90
2006,06,25,17,37,28.90
2006,06,25,17,38,28.90
2006,06,25,17,39,28.90
2006,06,25,17,40,28.90
2006,06,25,17,41,28.90
2006,06,25,17,42,28.90
2006,06,25,17,43,29.00
2006,06,25,17,44,29.10
2006,06,25,17,45,29.10
2006,06,25,17,46,29.20
2006,06,25,17,47,29.40
2006,06,25,17,48,29.40
2006,06,25,17,49,29.30
2006,06,25,17,50,29.30
2006,06,25,17,51,29.30
2006,06,25,17,52,29.40
2006,06,25,17,53,29.40
2006,06,25,17,54,29.60
2006,06,25,17,55,29.60
2006,06,25,17,56,29.60
2006,06,25,17,57,29.60
2006,06,25,17,58,29.50
2006,06,25,17,59,29.30
2006,06,25,18,00,29.20
2006,06,25,18,01,29.10
2006,06,25,18,02,29.00
2006,06,25,18,03,28.90
2006,06,25,18,04,28.90
2006,06,25,18,05,28.90
2006,06,25,18,06,29.00
2006,06,25,18,07,29.10